Location: Diederstetten
(49.0372°N, 10.3582°E)
Time: 20:39:24
(UTC+00:00)

Daily predictions for brighter satellites

Satellite Brightness Start Highest point End
(mag) Time Altitude Azimuth Time Altitude Azimuth Time Altitude Azimuth
Resurs 1-3 4.5 18:05:43 10° SE 18:09:30 30° ENE 18:13:19 10° N
Cosmos 1624 Rocket 4.1 18:05:18 10° S 18:10:32 63° ESE 18:15:47 10° NNE
Cosmos 1470 Rocket 3.6 18:07:07 10° S 18:11:34 79° E 18:16:05 10° NNE
Cosmos 2016 Rocket 4.3 18:07:42 10° N 18:13:31 43° ENE 18:19:18 10° SE
NOSS 0 Rocket 4.3 18:08:12 10° NNW 18:14:12 48° NE 18:20:09 10° SE
Cosmos 1420 Rocket 4.0 18:11:42 10° S 18:16:52 67° ESE 18:22:03 10° NNE
Cosmos 2123 Rocket 4.4 18:12:28 10° SSE 18:18:16 41° E 18:24:07 10° NNE
Cosmos 2173 Rocket 4.1 18:12:23 10° N 18:18:47 71° E 18:25:08 10° SSE
Okean-O 3.6 18:15:50 10° ESE 18:19:36 28° ENE 18:23:23 10° N
Cosmos 1263 4.2 18:17:37 10° S 18:21:08 82° E 18:24:12 10° N
Okean 2 4.2 18:18:21 10° N 18:21:57 29° ENE 18:25:32 10° SE
Timation 1 Rocket 4.4 18:16:59 10° SSW 18:22:53 62° ESE 18:28:49 10° NE
Cosmos 1000 Rocket 4.4 18:18:06 10° S 18:24:09 66° E 18:30:14 10° NNE
Okean O Rocket 1.6 18:23:23 10° SSE 18:27:48 81° ENE 18:32:13 10° NNW
Cosmos 2242 Rocket 3.9 18:24:46 10° N 18:29:14 48° ENE 18:33:38 10° SSE
Cosmos 2100 Rocket 4.1 18:22:54 10° N 18:29:19 87° E 18:35:40 10° S
GEOS 3 Rocket 3.7 18:24:17 10° NE 18:29:41 75° SE 18:35:04 10° SW
YAOGAN 1 3.6 18:25:50 10° S 18:30:00 50° W 18:34:14 10° NNW
CSL-04 Rocket 3.9 18:26:51 10° SE 18:32:13 52° ENE 18:37:36 10° N
USA 215 3.7 18:26:14 10° NE 18:32:43 66° NNW 18:39:09 10° WSW
ISS -3.3 18:29:25 10° W 18:32:45 59° N 18:35:45 12° ENE
In-Cosmos 22 4.5 18:27:06 10° NNW 18:32:45 77° W 18:38:28 10° S
Cosmos 676 Rocket 4.2 18:29:14 10° NNW 18:34:27 76° WSW 18:39:41 10° SSE
SL-27 R/B 2.2 18:31:42 10° SSW 18:35:00 88° ESE 18:38:17 10° NNE
Cosmos 1452 Rocket 4.1 18:30:24 10° SSE 18:35:06 34° ESE 18:39:51 10° NE
KORONAS-FOTON 4.0 18:31:34 10° NNW 18:35:22 73° W 18:39:11 10° S
Cosmos 2237 Rocket 2.7 18:33:34 10° NNW 18:38:57 43° NE 18:43:20 15° ESE
Exosat Rocket 3.8 18:36:09 10° SSW 18:41:20 88° ESE 18:48:04 10° NNE
USA 186 1.6 18:41:12 10° SSE 18:44:16 71° ENE 18:47:24 10° N
Okean 3 4.3 18:44:21 10° NNW 18:48:28 53° W 18:52:34 10° S
Meteor 1-21 4.4 18:42:52 10° NNW 18:48:29 77° W 18:54:08 10° S
H-2A R/B 4.4 18:47:34 14° ENE 18:48:44 15° ENE 18:51:19 10° NNE
Cosmos 1741 Rocket 4.1 18:45:01 10° NNW 18:50:14 60° ENE 18:54:39 14° SE
Cosmos 1707 4.2 18:49:58 10° NNW 18:53:32 38° W 18:57:02 10° SSW
CZ-4B R/B 4.2 18:48:16 10° S 18:53:45 50° W 18:59:14 10° NNW
Cosmos 968 Rocket 4.3 18:50:11 10° N 18:54:51 33° NE 18:57:25 21° ESE
Cosmos 2322 4.4 18:49:24 10° NW 18:54:55 54° WSW 19:00:23 10° S
IRS-1C Rocket 4.3 18:50:13 12° SE 18:55:01 53° ENE 19:00:09 10° N
Okean 1-7 4.1 18:50:49 10° NNW 18:55:01 47° W 18:59:11 10° SSW
Cosmos 1674 4.0 18:54:26 10° NNW 18:57:57 41° W 19:01:27 10° SSW
Cosmos 1805 3.2 18:54:48 10° S 18:58:31 56° E 19:02:16 10° NNE
Lacrosse 5 rocket 2.4 18:55:11 10° S 18:58:41 25° SE 18:59:09 24° ESE
Cosmos 1980 3.8 18:54:45 10° NNW 19:00:24 62° ENE 19:04:23 20° SE
Cosmos 2219 Rocket 3.6 18:56:11 10° NW 19:01:26 39° WSW 19:06:38 10° S
Cosmos 1933 Rocket 4.3 18:58:42 10° SSW 19:02:57 54° WNW 19:07:14 10° N
Cosmos 1975 3.2 18:59:04 10° SSW 19:03:00 65° WNW 19:06:58 10° N
SJ-6B 3.3 18:59:17 10° S 19:03:10 60° W 19:06:59 10° NNW
Cosmos 2333 Rocket 4.4 18:58:31 10° NW 19:03:13 26° WSW 19:07:54 10° SSW
Cosmos 1726 1.8 19:04:30 10° S 19:07:59 70° E 19:11:30 10° NNE
Cosmos 2233 Rocket 3.9 19:01:53 10° N 19:08:01 67° ENE 19:14:10 10° SSE
CSL-04 Debris 4.3 19:03:12 10° S 19:08:37 77° WSW 19:14:06 10° NNW
Ariane Rocket 4.1 19:09:42 24° E 19:11:11 27° ENE 19:15:26 10° N
BREEZE-M DEB (TANK) 4.3 19:10:23 10° W 19:12:05 13° SW 19:13:24 10° SSW
Cosmos 2061 Rocket 4.1 19:05:42 10° N 19:12:12 90° E 19:18:37 10° S
Cosmos 1869 Rocket 3.5 19:08:12 10° SSW 19:12:30 82° W 19:16:53 10° N
COSMOS 2428 3.6 19:09:08 10° NW 19:14:39 50° WSW 19:20:09 10° S
Landsat 5 3.5 19:11:27 10° NNE 19:15:11 45° E 19:17:14 23° SSE
SL-14 R/B 3.2 19:12:45 10° N 19:16:37 85° W 19:19:24 18° S
USA 281 4.4 19:13:57 10° NNE 19:20:05 44° NW 19:26:13 10° WSW
Cosmos 2297 Rocket 2.3 19:15:39 10° S 19:21:02 48° ESE 19:26:28 10° NE
ATLAS 3B R/B 4.5 19:17:39 10° NW 19:23:36 26° N 19:29:47 10° ENE
Cosmos 1867 3.5 19:19:23 10° SSW 19:24:46 66° ESE 19:30:12 10° NE
Resurs 01 Rocket 1.5 19:25:55 28° SSE 19:28:11 79° ENE 19:32:37 10° NNW
Cosmos 1725 Rocket 4.5 19:23:06 10° NNW 19:29:11 61° W 19:35:15 10° S
Meteor 2-5 Rocket 4.4 19:25:07 10° N 19:30:32 38° ENE 19:32:00 33° E
Cosmos 1733 4.2 19:29:05 10° SSW 19:32:43 46° WNW 19:36:23 10° N
CZ-4C R/B 3.6 19:26:35 10° NW 19:32:50 40° NNE 19:36:50 24° E
SPOT 3 Rocket 4.4 19:32:02 30° E 19:32:51 32° ENE 19:37:26 10° N
CENTAUR R/B 3.9 19:25:07 10° NW 19:33:06 54° WSW 19:41:24 11° SSE
NOSS 3-2 (C) 4.1 19:25:51 10° NW 19:33:17 82° SW 19:38:47 25° SSE
Cosmos 1271 Rocket 3.9 19:36:59 28° NE 19:36:59 28° NE 19:39:05 10° NNE
MOS 1 4.2 19:33:10 28° SSE 19:36:21 75° ENE 19:42:04 10° NNW
IRS-P2 Rocket 4.5 19:33:49 27° SSE 19:36:43 84° ENE 19:41:59 10° NNW
Cosmos 2227 Rocket 2.5 19:35:03 31° SSE 19:36:52 40° ESE 19:42:08 10° NE
CZ-4 R/B 4.2 19:35:15 10° SW 19:37:34 15° W 19:39:55 10° NW
Terra 3.1 19:42:45 24° NE 19:42:45 24° NE 19:46:15 10° N
Iridium 4 Rocket 4.3 19:38:48 10° NNW 19:42:43 39° W 19:46:35 10° SSW
Geosat 4.3 19:40:51 28° S 19:43:30 65° WSW 19:48:30 10° NW
USA 238 DEB 3.9 19:39:37 10° NW 19:46:56 83° SW 19:50:50 33° SSE
USA 238 3.9 19:39:43 10° NW 19:47:02 83° SW 19:50:55 33° SSE
MetOp-A 4.0 19:46:21 42° SSE 19:48:10 75° ENE 19:53:23 10° NNW
SL-16 R/B 2.5 19:42:55 10° NNW 19:48:27 48° NE 19:49:39 42° E
Cosmos 1674 Rocket 3.3 19:48:10 10° N 19:52:31 72° E 19:52:42 71° E
Cosmos 1733 Rocket 3.0 19:53:01 37° SSW 19:54:42 83° W 19:59:03 10° N
Okean-O 4.0 19:52:20 13° SSW 19:55:57 36° W 20:00:04 10° NNW
CARTOSAT-1 3.5 19:58:45 64° S 19:59:22 80° WSW 20:03:41 10° NNW
Meteor 2-13 Rocket 4.4 19:53:25 10° S 19:59:35 88° E 20:05:47 10° N
SPOT 1/Viking Rocket 4.3 19:55:57 18° S 19:59:36 51° W 20:04:41 10° NNW
Cosmos 1110 Rocket 4.3 19:56:43 10° SSW 20:01:54 66° WNW 20:07:05 10° NNE
SPOT 5 3.1 20:02:23 51° ENE 20:02:23 51° ENE 20:06:48 10° N
Cosmos 1378 Rocket 3.5 19:59:19 10° N 20:03:45 84° W 20:04:02 77° SSW
Cosmos 2221 Rocket 3.7 20:00:23 10° NNW 20:04:48 72° W 20:05:26 61° SSW
Cosmos 1464 Rocket 4.0 20:00:48 10° N 20:07:08 66° ENE 20:08:27 53° SE
BREEZE-M DEB (TANK) 3.5 20:04:51 10° WNW 20:08:22 44° W 20:08:22 44° W
ISS -2.2 20:06:28 10° WNW 20:08:42 36° NW 20:08:42 36° NW
USA 215 4.1 20:10:32 17° ENE 20:15:13 45° N 20:21:21 10° WNW
ADEOS Rocket 3.3 20:15:26 51° E 20:16:24 55° ENE 20:23:13 10° N
Cosmos 1891 Rocket 4.4 20:11:49 10° N 20:17:59 85° W 20:19:48 49° S
Cosmos 1766 4.4 20:17:38 38° W 20:18:14 41° WNW 20:21:52 10° N
Meteor 1-22 Rocket 4.3 20:20:16 65° SE 20:20:59 72° E 20:27:02 10° NNE
Cosmos 2237 Rocket 3.3 20:17:48 10° NW 20:22:58 37° WSW 20:25:11 27° SSW
H-2A R/B 2.8 20:23:55 68° NW 20:23:55 68° NW 20:27:53 10° NNW
Meteor 1-15 Rocket 4.2 20:24:43 52° SSW 20:26:14 86° WNW 20:32:10 10° NNE
MetOp-B 4.5 20:29:53 52° SW 20:30:50 61° WSW 20:36:10 10° NNW
Cosmos 2346 Rocket 4.4 20:31:21 48° SSW 20:33:14 81° W 20:39:29 10° N
ATLAS CENTAUR R/B 4.1 20:19:20 10° WSW 20:34:16 74° NNW 20:40:10 16° NE
Cosmos 968 Rocket 4.3 20:31:53 10° NW 20:36:44 41° WSW 20:37:26 39° SW
Lacrosse 5 rocket 3.4 20:33:03 10° WSW 20:34:34 21° WSW 20:34:34 21° WSW
SJ 16-02 2.6 20:33:30 10° NNW 20:36:14 35° N 20:36:14 35° N
ERS-1 Rocket 3.3 20:44:49 64° NNW 20:44:49 64° NNW 20:49:04 10° NNW
FALCON 9 R/B 4.2 20:30:52 10° WSW 20:44:28 30° SSW 20:45:16 30° SSW
Meteor 1-24 Rocket 4.0 20:40:49 10° NNW 20:46:42 67° W 20:47:15 64° SW
Ariane Rocket 3.7 20:49:52 48° W 20:49:54 48° W 20:54:50 10° NNW
BREEZE-M DEB (TANK) 3.6 20:46:10 10° WNW 20:50:43 54° W 20:50:43 54° W
Cosmos 1943 3.9 20:50:03 10° NNW 20:54:31 43° NNE 20:54:31 43° NNE
Spot 2 Rocket 4.1 21:01:35 54° NW 21:01:35 54° NW 21:05:47 10° NNW
Resurs 01 Rocket 4.3 21:03:26 11° WSW 21:05:14 13° W 21:07:15 10° WNW
Cosmos 2297 Rocket 3.7 21:00:08 10° WSW 21:05:16 35° NW 21:10:26 10° NNE
Cosmos 2034 Rocket 4.1 21:01:51 10° NNW 21:07:51 68° W 21:07:51 68° W
Cosmos 2219 3.8 21:13:55 54° NNW 21:13:55 54° NNW 21:18:50 10° NNE
Tsikada Rocket 4.4 21:15:13 53° NNE 21:15:13 53° NNE 21:19:50 10° N
ATLAS 3B R/B 3.7 21:09:22 10° NW 21:16:24 41° NNE 21:17:41 39° NE
Terra 3.3 21:21:29 34° NW 21:21:29 34° NW 21:24:25 10° NNW
Cosmos 2227 Rocket 3.3 21:15:37 10° WSW 21:20:56 40° NW 21:26:17 10° NNE
CZ-4C R/B 2.9 21:14:53 10° NW 21:21:59 79° WSW 21:21:59 79° WSW
SL-16 R/B 3.6 21:27:22 10° NW 21:31:32 31° W 21:31:32 31° W
USA 215 3.8 21:57:51 53° N 21:57:51 53° N 22:03:56 10° WNW
ADEOS Rocket 4.4 22:02:22 32° W 22:02:22 32° W 22:08:23 10° NNW
Cosmos 2263 Rocket 4.0 22:13:19 25° N 22:13:19 25° N 22:15:44 10° NNE
SJ 16-02 4.4 22:12:59 10° NW 22:13:08 11° WNW 22:13:08 11° WNW
ATLAS 2AS CENTAUR R/B 4.1 22:29:01 31° NE 22:29:01 31° NE 22:32:25 10° NE
ATLAS CENTAUR R/B 4.2 22:40:47 10° WNW 22:49:44 41° NNW 22:49:44 41° NNW
Cosmos 2082 Rocket 4.4 22:59:05 10° N 23:02:28 19° NNE 23:02:28 19° NNE
ATLAS 3B R/B 3.8 23:00:12 10° NW 23:04:56 42° NW 23:04:56 42° NW
Cosmos 2344 4.4 23:12:01 10° NW 23:18:50 57° WNW 23:18:50 57° WNW
